STARLINK-4020 (52703 NORAD) Tracking and Keplerian Element Data

This shows tracking and keplerian element data for the satellite.

Feedback or suggestion? Click here.




ElementValue
Catalog52703
NameSTARLINK-4020
Epoch Orbit130
Epoch Day228.91667824
Epoch Year2022
RAAN213.9265
Inclination53.2174
Eccentricity0.0001952
Argument of Perigee36.4675
Mean Anonmoly107.1725
Mean Motion15.2502819
Decay Rate-0.01065159
L11 52703U 22053AZ 22228.91667824 -.01065159 00000+0 -45948-1 0 9997
L22 52703 53.2174 213.9265 0001952 36.4675 107.1725 15.25028190 1307

Live tracking and technical data element details for STARLINK-4020 (NORAD 52703). STARLINK-4020 can be tracked NOW for your location showing map with azimuth and elevation plus other details from your city location.

Track the satellite on the map from your city or location and see movement details for azimuth, elevation, latitude, longitude, range, height, and movement on the map or in text.







IsCatalogInMostPopularTable: catalog: 52703, numindb: 7
Update: records affected: 1



GetName: 52703 STARLINK-4020

Hit Count: updated at: Thu, 18 Aug 2022 19:00:39 GMT